Regional Weather Roundup
Issued by NWS

Home | Current Version | Previous Version | Text Only | Print | Product List | Glossary Off
Versions: 1 2 3 4 5 6 7 8 9 10 11 12 13 14 15 16 17 18 19 20 21 22 23 24 25 26 27 28 29 30 31 32 33 34 35 36 37 38 39 40 41 42 43 44 45 46 47 48 49 50

000
ASUS45 KBOU 280407
RWRCO

WEATHER ROUNDUP FOR COLORADO
NATIONAL WEATHER SERVICE DENVER/BOULDER CO
1000 PM MDT THU AUG 27 2015

NOTE: "FAIR" INDICATES FEW OR NO CLOUDS BELOW 12000 FEET WITH NO
SIGNIFICANT WEATHER AND/OR OBSTRUCTIONS TO VISIBILITY.

COZ001>005-013-030-031-280500-
...NORTHWEST COLORADO...

CITY           SKY/WX    TMP DP  RH WIND       PRES   REMARKS
CRAIG          MOCLDY    61  49  64 S9        30.30R
HAYDEN         NOT AVBL
MEEKER         CLOUDY    59  53  80 NW3       30.33R
MOUNT WERNER   NOT AVBL
STEAMBOAT SPGS MOCLDY    53  49  86 NE6       30.34R
WALDEN         MOCLDY    50  45  81 SE6       30.39R
$$

COZ006>008-011-280500-
...WEST CENTRAL VALLEYS...

CITY           SKY/WX    TMP DP  RH WIND       PRES   REMARKS
GRAND JUNCTION MOCLDY    70  55  59 N21G35    30.20R THUNDER
MONTROSE       CLEAR     67  57  70 SE8       30.26R
EAGLE          MOCLDY    61  54  77 SE13      30.35R
RIFLE          TSTM      60  55  83 SE15      30.29S
DELTA          RAIN      69  56  64 NE8       30.22R
NUCLA          CLEAR     70  54  56 E9        30.29R
$$

COZ017>023-064>068-280500-
...SOUTHWEST COLORADO...

CITY           SKY/WX    TMP DP  RH WIND       PRES   REMARKS
DURANGO        PTCLDY    63  54  72 CALM      30.29R
CORTEZ         MOCLDY    62  56  80 E3        30.25R
PAGOSA SPRINGS PTCLDY    59  56  91 N3        30.38R
TELLURIDE      PTCLDY    53  50  88 SE5       30.51R
WOLF CREEK PAS CLEAR     43  41  93 N3        30.69S
$$

COZ009-010-012-014-032>034-037-058>063-280500-
...CENTRAL COLORADO...

CITY           SKY/WX    TMP DP  RH WIND       PRES   REMARKS
ASPEN          PTCLDY    53  49  86 S8        30.40R
BUENA VISTA    PTCLDY    58  45  61 NW12      30.39R
COPPER MTN     MOCLDY    46  41  81 W15       30.68R
BERTHOUD PASS  FAIR      37  28  70 NW22G28   30.69R
COTTONWOOD PAS PTCLDY    55  43  62 NW7       30.52R
GUNNISON       PTCLDY    59  48  67 NE7       30.41R
KREMMLING      MOCLDY    54  48  82 SW7       30.40R
LEADVILLE      PTCLDY    44  43  96 NE7       30.53R
MONARCH PASS   PTCLDY    45  37  76 W22       30.74F
SALIDA         PTCLDY    64  45  49 NW7       30.43R
SUNLIGHT       TSTM      50  48  93 N10G21    30.64R VSB 1/2
WILKERSON PASS CLEAR     46  37  71 N8        30.63R
$$

COZ069>075-280500-
...SAN LUIS VALLEY/SANGRE DE CRISTO MOUNTAINS...

CITY           SKY/WX    TMP DP  RH WIND       PRES   REMARKS
ALAMOSA        PTCLDY    59  49  69 MISG      30.33R
LA VETA PASS   CLOUDY    48  45  87 MISG      30.54R FOG
SAGUACHE       CLEAR     59  46  63 NW10      30.36S
$$

COZ035-036-038>040-280500-
...NORTHERN COLORADO FRONT RANGE...

CITY           SKY/WX    TMP DP  RH WIND       PRES   REMARKS
DENVER INTL AP MOCLDY    70  54  56 SW12      30.18R
DMNS CITY PARK   N/A     67  58  71 S6G12     30.19R
AURORA         MOCLDY    65  58  77 SW8       30.21R
FRONT RANGE AP NOT AVBL
ERIE MUNI ARPT PTCLDY    68  55  64 S5        30.17R
BOULDER MUN AP PTCLDY    70  52  52 SW5       30.17S
CENTENNIAL     PTCLDY    63  56  78 SW5       30.22R
BROOMFIELD     MOCLDY    66  54  63 SW8       30.21R
FORT COLLINS   PTCLDY    68  55  64 CALM      30.17R
LONGMONT       PTCLDY    69  60  71 CALM      30.18R
$$

COZ041-046-047-076>085-087-088-280500-
...PIKES PEAK/PALMER DIVIDE AND SOUTHERN FOOTHILLS...

CITY           SKY/WX    TMP DP  RH WIND       PRES   REMARKS
COLO. SPRINGS  MOCLDY    64  55  72 W8        30.26R
A. F. ACADEMY  PTCLDY    58  56  92 N2        30.27R
ELLICOTT       PTCLDY   N/A N/A N/A CALM      30.22F
FALCON         PTCLDY    60  53  76 MISG      30.30R
FORT CARSON    CLOUDY    64  57  77 SW7       30.23R
LIMON          MOCLDY    61  57  87 NW6       30.17S
MONUMENT HILL  PTCLDY    54  52  94 W6        30.31R
TRINIDAD       LGT RAIN  65  58  78 NW9       30.25R
$$

COZ042>045-048>051-090-091-280500-
...NORTHEAST COLORADO...

CITY           SKY/WX    TMP DP  RH WIND       PRES   REMARKS
GREELEY ARPT   PTCLDY    64  54  68 CALM      30.15R
AKRON          PTCLDY    63  61  93 W7        30.11R
BURLINGTON     MOCLDY    71  55  56 W9        30.08R
WRAY           MOCLDY    69  61  75 NW6       30.03R
STERLING       PTCLDY    64  55  72 N5        30.06R
HOLYOKE        MOCLDY    70  59  68 N9        30.04R
FORT MORGAN    PTCLDY    64  60  86 NW6       30.12R
$$

COZ086-089-092>099-280500-
...SOUTHEAST COLORADO...

CITY           SKY/WX    TMP DP  RH WIND       PRES   REMARKS
PUEBLO         CLOUDY    67  61  81 SW9       30.17R
LA JUNTA       CLOUDY    73  58  59 NW3       30.11R
LAMAR          CLOUDY    72  62  71 W5        30.03R
SPRINGFIELD      N/A     69  61  75 N3        30.08S
$$



USA.gov is the U.S. government's official web portal to all federal, state and local government web resources and services.